If you wish to contribute or participate in the discussions about articles you are invited to join SKYbrary as a registered user

 Actions

Antonio Narino Airport

From SKYbrary Wiki

SKPS
Airport
ICAO: SKPS – IATA: PSO
Summary
Name Antonio Narino Airport
Region South America and Caribbean
Territory Colombia CO.gif
Location Chachagui, Narino Department
Serving Pasto
Elevation 1,813.865 m
5,951 ft1,813.865 m
Coordinates 1° 23' 50.03" N, 77° 17' 25.88" W
Runways
Designator Length Width Surface ROPS
2/20 2312 m7,585.302 ft
40 m131.234 ft
ASP /


METAR
Observation SKPS 241200Z 00000KT 1000 BCFG SCT010 OVC080 17/17 A3024 REDZ RMK AD BLW MNM MET
Station Pasto / Antonio Narin
Date/Time 24 March 2019 12:00:00
Wind direction
Wind speed 00 kts
Lowest cloud amount scattered clouds
Temperature 17°C
Dew point 17°C
Humidity 100%
QNH hPa
Weather condition n/a

Antonio Nariño Airport is located in the town of Chachagüí and serves the city of Pasto in the Nariño Department of Colombia. The airport is 35 km18.898 nm
35,000 m
114,829.396 ft
north of Pasto.

Climatology

Subtropical highland climate (Köppen climate classification Cwb)

Maps

Terrain

Loading map...

Airport Layout

Loading map...


Accidents & Serious Incidents at or in vicinity of SKPS

None on SKYbrary